DW1196 Weather Reports


Display with metric or nautical units.
time (UTC)temp
F
wind
direction
speed
MPH
gust
MPH
rain 1hr
in
rain 24hr
in
rain mn
in
humidity
%
barometer
mb
20260504120104 62 270 3.0 5.0 0.00 0.21 0.21 92 1017.2
20260504110604 63 243 6.0 9.0 0.00 0.21 0.21 91 1016.7
20260504100604 65 245 1.0 2.0 0.00 0.21 0.21 89 1015.9
20260504100105 65 245 0.0 2.0 0.00 0.21 0.21 89 1015.9
20260504090104 68 336 2.0 3.0 0.00 0.21 0.21 81 1015.9
20260504081604 68 25 5.0 12.0 0.00 0.21 0.21 83 1015.4
20260504081104 68 27 3.0 6.0 0.00 0.21 0.21 83 1015.4
20260504080604 68 32 3.0 6.0 0.00 0.21 0.21 83 1015.5
20260504080104 68 30 3.0 6.0 0.00 0.21 0.21 83 1015.4
20260504070104 69 11 5.0 7.0 0.00 0.21 0.21 81 1015.1
20260504060104 69 23 3.0 6.0 0.00 0.21 0.21 80 1015.2
20260504050604 69 356 4.0 12.0 0.00 0.21 0.21 80 1015.3
20260504050104 69 338 6.0 10.0 0.00 0.21 0.21 81 1015.3
20260504045604 69 358 2.0 7.0 0.00 0.21 0.21 83 1015.3
20260504045104 69 340 0.0 3.0 0.00 0.21 0.21 84 1015.3
20260504044603 69 340 2.0 3.0 0.00 0.21 0.21 83 1015.4
20260504044104 69 342 0.0 3.0 0.00 0.21 0.21 83 1015.4
20260504043604 69 343 0.0 2.0 0.00 0.21 0.21 84 1015.3
20260504043104 68 343 1.0 3.0 0.00 0.21 0.21 84 1015.2
20260504042604 69 343 0.0 3.0 0.00 0.21 0.21 86 1015.4
20260504041604 67 5 4.0 7.0 0.00 0.21 0.21 87 1015.4
20260504041104 67 19 3.0 7.0 0.00 0.21 0.21 89 1015.4
20260504040604 67 22 2.0 10.0 0.00 0.21 0.21 90 1015.5
20260504040104 66 34 3.0 9.0 0.00 0.21 0.21 91 1015.6
20260504035604 66 30 4.0 8.0 0.00 0.21 0.21 92 1015.7
20260504035104 65 35 3.0 7.0 0.00 0.21 0.21 92 1015.6
20260504034604 65 6 4.0 10.0 0.00 0.21 0.21 92 1015.7
20260504034104 65 13 2.0 7.0 0.00 0.21 0.21 94 1015.8
20260504033104 64 46 3.0 6.0 0.00 0.21 0.21 94 1015.6
20260504032604 64 38 2.0 8.0 0.00 0.21 0.21 95 1015.9
20260504032104 63 41 4.0 7.0 0.00 0.21 0.21 95 1016.1
20260504031604 63 27 5.0 6.0 0.00 0.21 0.21 95 1016.2
20260504031104 63 55 3.0 10.0 0.00 0.21 0.21 95 1016.1
20260504030104 63 40 6.0 10.0 0.00 0.21 0.21 95 1016.3
20260504024604 63 50 6.0 10.0 0.02 0.21 0.21 95 1016.6
20260504023604 64 46 5.0 10.0 0.06 0.21 0.21 95 1016.8
20260504023104 63 43 7.0 12.0 0.06 0.21 0.21 95 1016.9
20260504022604 63 49 5.0 9.0 0.07 0.21 0.21 95 1017.0
20260504021604 63 52 4.0 8.0 0.09 0.21 0.21 95 1017.3
20260504021104 63 59 6.0 8.0 0.09 0.21 0.21 95 1017.5
20260504020604 63 63 5.0 7.0 0.09 0.21 0.21 95 1017.4
20260504020105 63 71 4.0 6.0 0.09 0.21 0.21 95 1017.5
20260504015604 63 47 4.0 6.0 0.09 0.20 0.20 95 1017.8
20260504015104 63 53 3.0 5.0 0.10 0.20 0.20 95 1018.0
20260504013605 63 29 1.0 3.0 0.09 0.16 0.16 95 1018.4
20260504013104 63 29 2.0 5.0 0.09 0.15 0.15 95 1018.3
20260504012604 63 37 3.0 6.0 0.09 0.14 0.14 94 1018.4
20260504011104 63 121 2.0 3.0 0.08 0.12 0.12 94 1018.5
20260504010604 63 121 0.0 1.0 0.09 0.12 0.12 94 1018.5
20260504010105 63 121 1.0 3.0 0.09 0.12 0.12 94 1018.4
20260504005605 63 121 2.0 3.0 0.08 0.11 0.11 94 1018.5
20260504005104 63 121 1.0 2.0 0.08 0.10 0.10 94 1018.4
20260504004604 63 121 1.0 2.0 0.07 0.09 0.09 94 1018.5
20260504004104 63 121 0.0 0.0 0.06 0.08 0.08 94 1018.5
20260504003604 63 121 0.0 1.0 0.05 0.06 0.06 94 1018.5
20260504003104 63 121 0.0 1.0 0.05 0.06 0.06 94 1018.4
20260504002604 63 121 1.0 2.0 0.06 0.06 0.06 93 1018.4
20260504002104 63 121 1.0 2.0 0.05 0.05 0.05 93 1018.5
20260504001604 63 121 2.0 3.0 0.04 0.04 0.04 93 1018.5
20260504000604 63 121 0.0 3.0 0.03 0.03 0.03 93 1018.4
20260504000104 63 122 1.0 3.0 0.03 0.03 0.03 93 1018.2
20260503235605 63 244 1.0 3.0 0.03 0.03 0.03 93 1018.4
20260503234605 63 309 0.0 0.0 0.02 0.02 0.02 92 1018.5
20260503234104 63 309 0.0 1.0 0.02 0.02 0.02 91 1018.5
20260503233604 63 309 1.0 2.0 0.02 0.02 0.02 91 1018.5
20260503232604 63 309 1.0 3.0 0.00 0.00 0.00 91 1018.6
20260503231104 64 327 3.0 7.0 0.00 0.00 0.00 90 1019.0
20260503230604 64 335 3.0 7.0 0.00 0.00 0.00 89 1019.0
20260503230104 63 323 4.0 8.0 0.00 0.00 0.00 89 1018.9
20260503225604 63 327 4.0 7.0 0.00 0.00 0.00 89 1018.8
20260503224604 63 319 3.0 6.0 0.00 0.00 0.00 89 1018.6
20260503224104 63 332 5.0 7.0 0.00 0.00 0.00 89 1018.5
20260503223604 63 326 3.0 7.0 0.00 0.00 0.00 89 1018.3
20260503223104 63 346 3.0 7.0 0.00 0.00 0.00 89 1018.3
20260503222104 63 12 3.0 5.0 0.00 0.00 0.00 90 1018.0
20260503221604 63 20 3.0 6.0 0.00 0.00 0.00 90 1018.0
20260503221104 63 20 2.0 3.0 0.00 0.00 0.00 90 1017.9
20260503220604 63 29 2.0 6.0 0.00 0.00 0.00 90 1017.9
20260503220104 63 19 3.0 5.0 0.00 0.00 0.00 91 1017.9
20260503215604 63 19 2.0 5.0 0.00 0.00 0.00 91 1017.8
20260503214103 62 19 2.0 7.0 0.00 0.00 0.00 92 1017.6
20260503213604 63 19 3.0 5.0 0.00 0.00 0.00 92 1017.7
20260503213104 62 21 2.0 5.0 0.00 0.00 0.00 92 1017.7
20260503212604 62 67 1.0 2.0 0.00 0.00 0.00 92 1017.8
20260503212104 62 68 1.0 3.0 0.00 0.00 0.00 93 1017.7
20260503211104 62 68 2.0 5.0 0.00 0.00 0.00 93 1017.5
20260503210604 62 69 3.0 3.0 0.00 0.00 0.00 93 1017.3
20260503205604 61 90 1.0 3.0 0.00 0.00 0.00 93 1017.3
20260503205104 61 91 0.0 1.0 0.00 0.00 0.00 93 1017.2
20260503204604 61 253 0.0 1.0 0.00 0.00 0.00 93 1017.2
20260503204104 61 255 0.0 1.0 0.00 0.00 0.00 94 1017.1
20260503203604 61 255 1.0 2.0 0.00 0.00 0.00 93 1017.1
20260503203104 61 255 0.0 1.0 0.00 0.00 0.00 94 1017.0
20260503202604 61 255 0.0 0.0 0.00 0.00 0.00 94 1017.0
20260503202104 61 255 0.0 0.0 0.00 0.00 0.00 94 1017.0
20260503201603 61 255 0.0 0.0 0.00 0.00 0.00 94 1017.0
20260503201104 61 255 0.0 1.0 0.00 0.00 0.00 94 1016.9
20260503200604 61 255 1.0 2.0 0.00 0.00 0.00 94 1016.9
20260503200104 60 255 1.0 2.0 0.00 0.00 0.00 94 1016.9
20260503195604 60 255 0.0 0.0 0.00 0.00 0.00 94 1016.8
20260503195104 60 255 0.0 1.0 0.00 0.00 0.00 94 1016.7
20260503194604 60 255 1.0 2.0 0.00 0.00 0.00 94 1016.7
20260503193604 60 255 2.0 3.0 0.00 0.00 0.00 94 1016.6
20260503193103 60 255 1.0 3.0 0.00 0.00 0.00 94 1016.6
20260503192604 60 255 1.0 2.0 0.00 0.00 0.00 94 1016.6
20260503192104 60 255 1.0 3.0 0.00 0.00 0.00 94 1016.5
20260503191604 60 255 1.0 1.0 0.00 0.00 0.00 94 1016.6
20260503191104 60 255 0.0 0.0 0.00 0.00 0.00 94 1016.6
20260503190104 60 255 0.0 1.0 0.00 0.00 0.00 94 1016.7
20260503185604 60 255 1.0 2.0 0.00 0.00 0.00 94 1016.6
20260503185104 60 255 1.0 3.0 0.00 0.00 0.00 94 1016.6
20260503184604 60 255 2.0 3.0 0.00 0.00 0.00 94 1016.7
20260503184104 60 255 1.0 2.0 0.00 0.00 0.00 94 1016.7
20260503183604 60 255 0.0 1.0 0.00 0.00 0.00 94 1016.7
20260503183104 60 255 0.0 1.0 0.00 0.00 0.00 94 1016.6
20260503182604 60 255 0.0 1.0 0.00 0.00 0.00 94 1016.6
20260503182104 60 255 0.0 0.0 0.00 0.00 0.00 94 1016.6
20260503181604 60 255 1.0 2.0 0.00 0.00 0.00 94 1016.7
20260503181104 60 255 1.0 2.0 0.00 0.00 0.00 94 1016.8
20260503180604 60 255 0.0 1.0 0.00 0.00 0.00 94 1016.6
20260503180104 60 255 0.0 1.0 0.00 0.00 0.00 94 1016.6
20260503175604 60 255 0.0 1.0 0.00 0.00 0.00 94 1016.6
20260503174104 60 255 0.0 1.0 0.00 0.00 0.00 94 1016.6
20260503173604 60 255 0.0 1.0 0.00 0.00 0.00 94 1016.6
20260503173104 60 255 0.0 0.0 0.00 0.00 0.00 94 1016.7
20260503172604 59 255 0.0 1.0 0.00 0.00 0.00 94 1016.7
20260503172104 59 255 1.0 2.0 0.00 0.00 0.00 94 1016.7
20260503171604 59 255 1.0 2.0 0.00 0.00 0.00 94 1016.8
20260503171104 59 255 0.0 1.0 0.00 0.00 0.00 94 1016.8
20260503170604 59 255 1.0 2.0 0.00 0.00 0.00 93 1016.8
20260503170104 60 255 0.0 2.0 0.00 0.00 0.00 93 1016.9
20260503160105 60 88 1.0 2.0 0.00 0.00 0.00 93 1017.7
20260503140104 62 33 0.0 0.0 0.00 0.00 0.00 92 1018.5
20260503131104 63 33 0.0 0.0 0.00 0.00 0.00 91 1019.0
20260503130604 63 33 0.0 0.0 0.00 0.00 0.00 91 1019.0
20260503130104 63 33 0.0 0.0 0.00 0.00 0.00 91 1019.0